SCP
0 0 0 0 0 0 0 0 0 0 0 0 0 0 0 0 0 0 0 0 0 0 0 0 0 0 0 0 0 0 0 0 0 0 0 0 0 0 0 0 0 0 0
0 0 0 0 0 0 0 0 0 0 0 0 0 0 0 0 0 0 0 0 0 0 0 0 0 0 0 0 0 0 0 0 0 0 0 0 0 0 0 0 0 0 0
0 0 0 0 0 0 0 0 0 0 0 0 0 0 0 0 0 0 0 0 0 0 0 0 0 0 0 0 0 0 0 0 0 0 0 0 0 0 0 0 0 0 0
0 0 0 0 0 0 0 0 0 0 0 0 0 0 0 0 0 0 0 0 0 0 0 0 0 0 0 0 0 0 0 0 0 0 0 0 0 0 0 0 0 0 0
0 0 0 0 0 0 0 0 0 0 0 0 0 0 0 0 0 0 0 0 0 0 0 0 0 0 0 0 0 0 0 0 0 0 0 0 0 0 0 0 0 0 0
0 0 0 0 0 0 0 0 0 0 0 0 0 0 0 0 0 0 0 0 0 0 0 0 0 0 0 0 0 0 0 0 0 0 0 0 0 0 0 0 0 0 0
0 0 0 0 0 0 0 0 0 0 0 0 0 0 0 0 0 0 0 0 0 0 0 0 0 0 0 0 0 0 0 0 0 0 0 0 0 0 0 0 0 0 0
0 0 0 0 0 0 0 0 0 0 0 0 0 0 0 0 0 0 0 0 0 0 0 0 0 0 0 0 0 0 0 0 0 0 0 0 0 0 0 0 0 0 0
0 0 0 0 0 0 0 0 0 0 0 0 0 0 0 0 0 0 0 0 0 0 0 0 0 0 0 0 0 0 0 0 0 0 0 0 0 0 0 0 0 0 0
0 0 0 0 0 0 0 0 0 0 0 0 0 0 0 0 0 0 0 0 0 0 0 0 0 0 0 0 0 0 0 0 0 0 0 0 0 0 0 0 0 0 0
0 0 0 0 0 0 0 0 0 0 0 0 0 0 0 0 0 0 0 0 0 0 0 0 0 0 0 0 0 0 0 0 0 0 0 0 0 0 0 0 0 0 0
0 0 0 0 0 0 0 0 0 0 0 0 0 0 0 0 0 0 0 0 0 0 0 0 0 0 0 0 0 0 0 0 0 0 0 0 0 0 0 0 0 0 0
0 0 0 0 0 0 0 0 0 0 0 0 0 0 0 0 0 0 0 0 0 0 0 0 0 0 0 0 0 0 0 0 0 0 0 0 0 0 0 0 0 0 0
0 0 0 0 0 0 0 0 0 0 0 0 0 0 0 0 0 0 0 0 0 0 0 0 0 0 0 0 0 0 0 0 0 0 0 0 0 0 0 0 0 0 0
0 0 0 0 0 0 0 0 0 0 0 0 0 0 0 0 0 0 0 0 0 0 0 0 0 0 0 0 0 0 0 0 0 0 0 0 0 0 0 0 0 0 0
0 0 0 0 0 0 0 0 0 0 0 0 0 0 0 0 0 0 0 0 0 0 0 0 0 0 0 0 0 0 0 0 0 0 0 0 0 0 0 0 0 0 0
0 0 0 0 0 0 0 0 0 0 0 0 0 0 0 0 0 0 0 0 0 0 0 0 0 0 0 0 0 0 0 0 0 0 0 0 0 0 0 0 0 0 0
0 0 0 0 0 0 0 -0 0 0 0 0 0 0 0 0 0 0 0 0 0 0 0 0 0 0 0 0 0 0 0 0 0 0 0 0 0 0 0 0 0 0 0
0 0 0 0 0 0 0 0 0 0 0 0 0 0 0 0 0 0 0 0 0 0 0 0 0 0 0 0 0 0 0 0 0 0 0 0 0 0 0 0 0 0 0
-0 -0 0 0 0 0 0 0 0 0 0 0 0 0 0 0 0 0 0 0 0 0 0 0 0 0 0 0 0 0 0 0 0 0 0 0 0 0 0 0 0 0 0
-0 -0 -0 -0 -0 -0 -0 -0 -0 -0 0 0 0 0 0 0 0 0 0 0 0 0 0 0 0 0 0 0 0 0 0 0 0 0 0 0 0 0 0 0 0 0 0
0 -0 -0 -0 -0 -0 -0 -0 0 0 0 0 0 0 0 0 0 0 0 0 0 0 0 0 0 0 0 0 0 0 0 0 0 0 0 0 0 0 0 0 0 0 0
0 0 0 0 0 0 0 0 0 0 0 0 0 0 0 0 0 0 0 0 0 0 0 0 0 0 0 0 0 0 0 0 0 0 0 0 0 0 0 0 0 0 0
0 0 0 0 0 0 0 0 0 0 0 0 0 0 0 0 0 0 0 0 0 0 0 0 0 0 0 0 0 0 0 0 0 0 0 0 0 0 0 0 0 0 0
0 0 0 0 0 0 0 0 0 0 0 0 0 0 0 0 0 0 0 0 0 0 0 0 0 0 0 0 0 0 0 0 0 0 0 0 0 0 0 0 0 0 0
0 0 0 0 0 0 0 0 0 0 0 0 0 0 0 0 0 0 0 0 0 0 0 0 0 0 0 0 0 0 0 0 0 0 0 0 0 0 0 0 0 0 0
Wind_Speed_500mb
55 51 52 51 46 43 39 38 36 38 37 35 34 33 32 30 28 27 26 25 25 25 25 25 27 26 25 23 30 29 19 22 24 26 29 26 26 32 35 39 43 46 46
55 55 53 50 46 46 44 43 41 42 42 42 42 40 39 37 34 32 31 29 28 27 26 26 28 28 26 20 32 31 20 22 25 27 27 24 28 31 32 32 35 42 46
50 56 59 56 43 44 48 48 48 47 49 49 48 47 46 43 41 38 35 33 32 30 29 29 30 31 28 24 27 28 23 26 26 27 27 26 30 30 29 30 33 35 37
53 55 57 57 49 49 50 51 51 49 48 51 51 51 50 48 46 43 42 40 37 35 33 32 31 33 32 28 33 27 33 23 22 24 26 27 31 27 26 26 29 29 30
40 45 47 50 51 51 50 51 52 51 50 51 52 54 56 55 52 51 49 48 44 42 38 36 34 35 36 37 37 31 31 32 22 23 27 30 28 27 28 26 27 28 28
37 40 41 42 44 46 48 51 52 54 55 53 54 58 61 61 60 60 57 54 53 50 46 42 39 38 41 43 36 36 33 40 29 27 29 30 28 28 29 30 30 31 31
32 36 37 39 43 46 47 48 51 54 56 55 56 62 66 66 67 67 64 60 61 57 53 48 45 43 46 51 44 41 39 41 37 33 33 34 31 30 31 30 30 32 32
28 33 35 38 41 43 45 48 51 55 55 56 57 60 59 59 70 73 73 70 67 65 62 57 53 51 50 53 55 51 49 44 42 43 36 33 32 33 33 32 33 32 31
21 22 25 31 39 42 44 45 49 53 54 55 57 52 19 25 36 45 51 65 74 73 69 64 61 59 57 57 58 57 57 56 53 52 43 34 35 36 36 37 36 34 31
18 18 19 22 30 37 40 42 43 49 53 55 56 61 67 71 55 39 44 32 44 61 70 71 69 67 65 63 62 61 60 59 60 58 53 45 43 40 40 38 36 34 33
19 22 25 29 32 35 34 36 39 44 50 56 58 58 64 68 76 83 81 68 64 58 57 62 69 71 71 68 67 66 64 63 61 61 60 52 49 45 43 42 40 39 38
16 16 18 21 24 29 34 36 40 43 48 53 55 58 64 69 63 64 72 81 84 83 82 76 72 71 70 70 70 68 67 67 65 66 64 57 54 49 48 46 44 42 41
25 27 28 29 28 28 30 34 37 38 44 53 56 59 62 67 69 76 82 88 94 91 90 86 79 74 74 76 74 71 70 70 68 70 68 63 58 55 53 51 50 47 45
31 31 32 32 34 36 35 33 35 39 44 47 53 58 65 69 69 70 74 77 89 86 87 89 82 75 73 74 75 77 76 74 72 75 75 68 64 61 59 57 53 51 49
32 29 28 33 39 39 40 40 39 39 42 46 50 56 60 65 69 70 70 70 76 80 90 79 78 80 79 77 77 81 83 78 79 79 80 75 70 67 65 62 58 56 53
46 44 44 46 48 46 45 46 47 46 45 48 50 52 53 60 64 67 69 71 73 81 100 80 80 76 74 79 75 78 84 85 88 84 83 81 76 73 69 69 65 61 59
51 54 55 55 57 58 57 54 52 52 54 55 55 56 59 55 57 59 65 69 73 77 92 100 94 91 94 88 83 80 77 83 87 88 86 85 83 81 77 76 73 68 65
51 56 58 61 67 69 71 71 73 67 65 65 62 66 68 65 64 59 57 66 74 76 82 93 92 94 92 91 94 90 91 90 90 89 90 89 90 88 86 83 81 76 71
57 61 68 71 74 75 80 81 85 88 87 84 80 76 77 75 78 72 65 66 67 73 78 86 95 90 93 90 87 94 97 97 97 96 92 94 94 92 94 92 87 85 78
72 76 79 83 86 91 95 95 95 95 95 96 97 95 94 91 87 83 78 77 73 74 75 82 86 87 90 91 86 91 98 101 100 97 100 103 101 99 100 97 95 93 88
91 97 102 104 105 105 104 103 98 94 98 104 105 105 104 105 104 101 94 88 83 83 83 83 87 84 88 91 96 96 99 101 105 100 103 109 110 108 109 104 105 103 96
99 103 106 108 111 110 93 67 68 76 86 96 110 117 117 113 113 110 106 98 91 87 94 93 92 92 94 86 87 88 97 97 104 109 106 113 113 118 117 114 111 107 102
102 104 105 107 111 112 106 78 70 74 84 92 101 106 110 114 110 111 112 100 88 93 95 97 101 103 99 92 83 84 91 98 110 94 75 99 113 126 124 120 112 111 107
100 104 108 109 112 113 105 93 79 81 94 104 106 106 102 103 99 93 92 102 110 110 114 116 108 111 103 99 91 91 92 95 92 97 95 106 105 114 114 126 118 114 112
99 103 105 106 102 102 90 80 70 77 87 93 90 91 89 96 99 88 88 96 102 110 114 99 103 111 104 98 94 86 93 92 94 98 100 104 95 96 106 114 115 117 118
100 100 101 94 88 86 76 68 59 65 75 80 80 81 77 78 78 78 83 93 104 111 107 112 104 99 103 101 99 89 100 101 106 78 98 96 94 87 84 108 109 110 115
Wind_Direction_500mb
244 250 257 259 262 266 265 261 253 247 246 247 248 251 253 254 254 255 258 258 262 266 270 269 270 271 271 273 276 273 264 236 232 238 250 248 239 236 233 232 230 227 229
246 248 257 265 263 264 265 261 257 249 248 248 248 249 251 253 254 256 259 260 262 264 264 265 270 273 275 261 268 276 259 243 240 243 247 250 244 244 242 240 236 231 232
248 253 256 260 270 270 267 260 256 251 246 246 247 248 248 249 252 254 256 259 261 263 265 264 263 264 264 244 247 274 270 269 262 256 254 250 251 251 250 244 240 238 235
257 250 259 258 281 275 268 260 258 256 253 251 251 252 252 252 253 255 257 260 260 262 264 266 264 264 265 245 251 268 279 269 270 261 255 247 251 258 256 245 238 241 239
258 252 259 264 272 275 270 267 264 262 260 258 258 255 253 253 253 254 256 259 261 261 262 262 263 264 266 265 259 258 258 277 268 258 257 256 260 258 258 256 249 243 240
264 262 264 269 267 270 271 270 269 267 267 267 264 259 255 254 253 254 254 255 258 258 259 259 260 259 260 264 262 253 226 261 267 256 257 259 261 262 261 260 258 256 256
269 271 272 270 267 272 274 277 275 271 268 268 268 265 262 259 257 256 256 256 257 259 259 258 258 256 253 257 261 250 241 246 269 265 259 263 261 259 258 259 261 261 260
268 273 275 275 273 273 275 275 275 273 271 268 265 268 271 271 265 262 260 259 258 258 258 257 257 256 253 253 256 255 250 247 261 272 268 264 257 257 257 254 252 252 254
255 265 269 273 273 273 273 276 277 278 278 274 270 258 266 251 270 266 263 259 257 256 259 257 256 256 256 255 254 254 252 254 260 268 273 268 261 260 256 253 250 249 248
279 273 257 263 274 275 274 274 274 273 275 274 274 268 261 259 273 286 274 281 274 262 261 260 259 258 257 257 256 256 254 253 256 260 267 267 264 259 256 250 247 247 247
290 290 285 279 273 270 275 277 272 268 269 272 272 272 271 271 268 268 279 279 274 276 276 271 266 262 261 259 257 256 255 254 255 256 259 262 260 258 252 248 245 244 244
345 329 315 304 298 292 289 282 270 268 268 267 269 269 267 266 266 269 274 279 282 278 274 272 271 268 265 261 259 257 256 255 254 253 256 258 256 255 249 247 247 247 247
9 4 355 348 335 318 306 298 293 284 272 270 269 268 268 267 268 268 272 275 277 278 277 273 269 268 267 264 261 259 258 257 254 253 254 254 254 254 249 246 247 248 249
3 355 353 348 339 335 333 328 311 302 292 281 274 270 270 267 267 267 269 274 277 276 275 271 267 265 265 265 265 260 258 257 255 252 251 252 251 252 249 246 246 247 247
346 348 344 337 330 328 327 326 329 325 315 304 291 280 274 272 270 268 266 266 270 276 275 272 271 267 264 263 262 262 259 260 259 252 251 250 249 251 251 247 245 245 245
337 336 332 330 329 325 319 316 314 315 316 315 311 302 291 284 278 273 268 266 263 268 275 271 269 268 266 264 263 261 261 261 257 255 251 251 249 250 251 249 245 245 244
330 330 329 326 321 318 318 318 313 310 306 304 306 305 303 301 293 286 280 272 266 265 270 274 273 271 264 261 260 260 261 258 257 255 254 251 248 247 248 247 246 244 244
324 322 318 316 314 313 312 312 311 309 307 304 300 299 297 298 296 294 290 284 278 271 269 273 274 274 271 266 263 261 261 260 259 257 254 253 251 247 245 245 245 242 243
318 316 314 312 309 306 306 304 303 303 302 299 297 294 292 292 290 291 290 288 285 282 276 274 274 272 272 269 263 260 258 258 256 256 255 254 254 249 245 244 243 241 241
317 313 311 308 306 304 302 300 298 296 295 294 293 290 288 286 283 284 285 283 284 283 281 278 276 274 271 267 264 261 259 257 255 254 251 249 251 250 246 242 242 241 239
316 314 312 310 308 305 303 302 303 301 296 292 288 286 285 284 282 281 280 277 279 279 279 278 277 274 269 265 261 261 260 261 258 254 252 249 248 247 247 243 240 239 238
308 307 306 306 305 303 303 297 295 292 289 287 287 285 283 280 279 279 279 279 275 272 273 273 274 272 271 266 267 262 262 258 257 254 250 250 249 248 248 245 242 240 237
307 305 304 303 301 299 300 297 292 284 279 276 277 279 281 282 281 278 276 276 271 267 264 265 266 267 270 269 266 259 257 257 258 255 253 255 250 249 248 248 246 244 240
308 307 306 304 301 299 300 298 296 286 278 274 271 271 272 275 275 276 276 278 275 272 269 266 260 262 265 268 265 261 260 263 265 261 254 252 254 254 252 251 248 245 242
310 309 307 306 305 304 305 304 299 291 288 286 285 282 278 277 276 276 274 271 268 265 264 266 267 263 260 262 262 258 249 245 247 247 247 246 245 250 251 252 251 249 243
313 311 310 310 309 308 308 307 299 294 293 295 295 292 289 285 284 281 276 273 271 268 266 267 264 262 261 257 255 246 246 241 241 243 243 241 241 240 246 250 249 246 244
Wind_Speed_850mb
55 51 52 51 46 43 39 38 36 38 37 35 34 33 32 30 28 27 26 25 25 25 25 25 27 26 25 23 30 29 19 22 24 26 29 26 26 32 35 39 43 46 46
55 55 53 50 46 46 44 43 41 42 42 42 42 40 39 37 34 32 31 29 28 27 26 26 28 28 26 20 32 31 20 22 25 27 27 24 28 31 32 32 35 42 46
50 56 59 56 43 44 48 48 48 47 49 49 48 47 46 43 41 38 35 33 32 30 29 29 30 31 28 24 27 28 23 26 26 27 27 26 30 30 29 30 33 35 37
53 55 57 57 49 49 50 51 51 49 48 51 51 51 50 48 46 43 42 40 37 35 33 32 31 33 32 28 33 27 33 23 22 24 26 27 31 27 26 26 29 29 30
40 45 47 50 51 51 50 51 52 51 50 51 52 54 56 55 52 51 49 48 44 42 38 36 34 35 36 37 37 31 31 32 22 23 27 30 28 27 28 26 27 28 28
37 40 41 42 44 46 48 51 52 54 55 53 54 58 61 61 60 60 57 54 53 50 46 42 39 38 41 43 36 36 33 40 29 27 29 30 28 28 29 30 30 31 31
32 36 37 39 43 46 47 48 51 54 56 55 56 62 66 66 67 67 64 60 61 57 53 48 45 43 46 51 44 41 39 41 37 33 33 34 31 30 31 30 30 32 32
28 33 35 38 41 43 45 48 51 55 55 56 57 60 59 59 70 73 73 70 67 65 62 57 53 51 50 53 55 51 49 44 42 43 36 33 32 33 33 32 33 32 31
21 22 25 31 39 42 44 45 49 53 54 55 57 52 19 25 36 45 51 65 74 73 69 64 61 59 57 57 58 57 57 56 53 52 43 34 35 36 36 37 36 34 31
18 18 19 22 30 37 40 42 43 49 53 55 56 61 67 71 55 39 44 32 44 61 70 71 69 67 65 63 62 61 60 59 60 58 53 45 43 40 40 38 36 34 33
19 22 25 29 32 35 34 36 39 44 50 56 58 58 64 68 76 83 81 68 64 58 57 62 69 71 71 68 67 66 64 63 61 61 60 52 49 45 43 42 40 39 38
16 16 18 21 24 29 34 36 40 43 48 53 55 58 64 69 63 64 72 81 84 83 82 76 72 71 70 70 70 68 67 67 65 66 64 57 54 49 48 46 44 42 41
25 27 28 29 28 28 30 34 37 38 44 53 56 59 62 67 69 76 82 88 94 91 90 86 79 74 74 76 74 71 70 70 68 70 68 63 58 55 53 51 50 47 45
31 31 32 32 34 36 35 33 35 39 44 47 53 58 65 69 69 70 74 77 89 86 87 89 82 75 73 74 75 77 76 74 72 75 75 68 64 61 59 57 53 51 49
32 29 28 33 39 39 40 40 39 39 42 46 50 56 60 65 69 70 70 70 76 80 90 79 78 80 79 77 77 81 83 78 79 79 80 75 70 67 65 62 58 56 53
46 44 44 46 48 46 45 46 47 46 45 48 50 52 53 60 64 67 69 71 73 81 100 80 80 76 74 79 75 78 84 85 88 84 83 81 76 73 69 69 65 61 59
51 54 55 55 57 58 57 54 52 52 54 55 55 56 59 55 57 59 65 69 73 77 92 100 94 91 94 88 83 80 77 83 87 88 86 85 83 81 77 76 73 68 65
51 56 58 61 67 69 71 71 73 67 65 65 62 66 68 65 64 59 57 66 74 76 82 93 92 94 92 91 94 90 91 90 90 89 90 89 90 88 86 83 81 76 71
57 61 68 71 74 75 80 81 85 88 87 84 80 76 77 75 78 72 65 66 67 73 78 86 95 90 93 90 87 94 97 97 97 96 92 94 94 92 94 92 87 85 78
72 76 79 83 86 91 95 95 95 95 95 96 97 95 94 91 87 83 78 77 73 74 75 82 86 87 90 91 86 91 98 101 100 97 100 103 101 99 100 97 95 93 88
91 97 102 104 105 105 104 103 98 94 98 104 105 105 104 105 104 101 94 88 83 83 83 83 87 84 88 91 96 96 99 101 105 100 103 109 110 108 109 104 105 103 96
99 103 106 108 111 110 93 67 68 76 86 96 110 117 117 113 113 110 106 98 91 87 94 93 92 92 94 86 87 88 97 97 104 109 106 113 113 118 117 114 111 107 102
102 104 105 107 111 112 106 78 70 74 84 92 101 106 110 114 110 111 112 100 88 93 95 97 101 103 99 92 83 84 91 98 110 94 75 99 113 126 124 120 112 111 107
100 104 108 109 112 113 105 93 79 81 94 104 106 106 102 103 99 93 92 102 110 110 114 116 108 111 103 99 91 91 92 95 92 97 95 106 105 114 114 126 118 114 112
99 103 105 106 102 102 90 80 70 77 87 93 90 91 89 96 99 88 88 96 102 110 114 99 103 111 104 98 94 86 93 92 94 98 100 104 95 96 106 114 115 117 118
100 100 101 94 88 86 76 68 59 65 75 80 80 81 77 78 78 78 83 93 104 111 107 112 104 99 103 101 99 89 100 101 106 78 98 96 94 87 84 108 109 110 115
Wind_Direction_850mb
244 250 257 259 262 266 265 261 253 247 246 247 248 251 253 254 254 255 258 258 262 266 270 269 270 271 271 273 276 273 264 236 232 238 250 248 239 236 233 232 230 227 229
246 248 257 265 263 264 265 261 257 249 248 248 248 249 251 253 254 256 259 260 262 264 264 265 270 273 275 261 268 276 259 243 240 243 247 250 244 244 242 240 236 231 232
248 253 256 260 270 270 267 260 256 251 246 246 247 248 248 249 252 254 256 259 261 263 265 264 263 264 264 244 247 274 270 269 262 256 254 250 251 251 250 244 240 238 235
257 250 259 258 281 275 268 260 258 256 253 251 251 252 252 252 253 255 257 260 260 262 264 266 264 264 265 245 251 268 279 269 270 261 255 247 251 258 256 245 238 241 239
258 252 259 264 272 275 270 267 264 262 260 258 258 255 253 253 253 254 256 259 261 261 262 262 263 264 266 265 259 258 258 277 268 258 257 256 260 258 258 256 249 243 240
264 262 264 269 267 270 271 270 269 267 267 267 264 259 255 254 253 254 254 255 258 258 259 259 260 259 260 264 262 253 226 261 267 256 257 259 261 262 261 260 258 256 256
269 271 272 270 267 272 274 277 275 271 268 268 268 265 262 259 257 256 256 256 257 259 259 258 258 256 253 257 261 250 241 246 269 265 259 263 261 259 258 259 261 261 260
268 273 275 275 273 273 275 275 275 273 271 268 265 268 271 271 265 262 260 259 258 258 258 257 257 256 253 253 256 255 250 247 261 272 268 264 257 257 257 254 252 252 254
255 265 269 273 273 273 273 276 277 278 278 274 270 258 266 251 270 266 263 259 257 256 259 257 256 256 256 255 254 254 252 254 260 268 273 268 261 260 256 253 250 249 248
279 273 257 263 274 275 274 274 274 273 275 274 274 268 261 259 273 286 274 281 274 262 261 260 259 258 257 257 256 256 254 253 256 260 267 267 264 259 256 250 247 247 247
290 290 285 279 273 270 275 277 272 268 269 272 272 272 271 271 268 268 279 279 274 276 276 271 266 262 261 259 257 256 255 254 255 256 259 262 260 258 252 248 245 244 244
345 329 315 304 298 292 289 282 270 268 268 267 269 269 267 266 266 269 274 279 282 278 274 272 271 268 265 261 259 257 256 255 254 253 256 258 256 255 249 247 247 247 247
9 4 355 348 335 318 306 298 293 284 272 270 269 268 268 267 268 268 272 275 277 278 277 273 269 268 267 264 261 259 258 257 254 253 254 254 254 254 249 246 247 248 249
3 355 353 348 339 335 333 328 311 302 292 281 274 270 270 267 267 267 269 274 277 276 275 271 267 265 265 265 265 260 258 257 255 252 251 252 251 252 249 246 246 247 247
346 348 344 337 330 328 327 326 329 325 315 304 291 280 274 272 270 268 266 266 270 276 275 272 271 267 264 263 262 262 259 260 259 252 251 250 249 251 251 247 245 245 245
337 336 332 330 329 325 319 316 314 315 316 315 311 302 291 284 278 273 268 266 263 268 275 271 269 268 266 264 263 261 261 261 257 255 251 251 249 250 251 249 245 245 244
330 330 329 326 321 318 318 318 313 310 306 304 306 305 303 301 293 286 280 272 266 265 270 274 273 271 264 261 260 260 261 258 257 255 254 251 248 247 248 247 246 244 244
324 322 318 316 314 313 312 312 311 309 307 304 300 299 297 298 296 294 290 284 278 271 269 273 274 274 271 266 263 261 261 260 259 257 254 253 251 247 245 245 245 242 243
318 316 314 312 309 306 306 304 303 303 302 299 297 294 292 292 290 291 290 288 285 282 276 274 274 272 272 269 263 260 258 258 256 256 255 254 254 249 245 244 243 241 241
317 313 311 308 306 304 302 300 298 296 295 294 293 290 288 286 283 284 285 283 284 283 281 278 276 274 271 267 264 261 259 257 255 254 251 249 251 250 246 242 242 241 239
316 314 312 310 308 305 303 302 303 301 296 292 288 286 285 284 282 281 280 277 279 279 279 278 277 274 269 265 261 261 260 261 258 254 252 249 248 247 247 243 240 239 238
308 307 306 306 305 303 303 297 295 292 289 287 287 285 283 280 279 279 279 279 275 272 273 273 274 272 271 266 267 262 262 258 257 254 250 250 249 248 248 245 242 240 237
307 305 304 303 301 299 300 297 292 284 279 276 277 279 281 282 281 278 276 276 271 267 264 265 266 267 270 269 266 259 257 257 258 255 253 255 250 249 248 248 246 244 240
308 307 306 304 301 299 300 298 296 286 278 274 271 271 272 275 275 276 276 278 275 272 269 266 260 262 265 268 265 261 260 263 265 261 254 252 254 254 252 251 248 245 242
310 309 307 306 305 304 305 304 299 291 288 286 285 282 278 277 276 276 274 271 268 265 264 266 267 263 260 262 262 258 249 245 247 247 247 246 245 250 251 252 251 249 243
313 311 310 310 309 308 308 307 299 294 293 295 295 292 289 285 284 281 276 273 271 268 266 267 264 262 261 257 255 246 246 241 241 243 243 241 241 240 246 250 249 246 244